Погода в Наташкуане

Канада     50°08′00″N   61°47′59″W
темп.,
°C
ветер,
м/с
пор.,
м/с
влажн.,
%
обл.,
%
осадки,
мм/ч
давл.,
гПа
погр.,
м
6 мая, чт
чт623:00+6всв3565100 0.0 1015185
02:00+6в71268100 0.0 1013696
05:00+5всв81477100 0.0 1013829
08:00+6в91474100 0.0 1012882
11:00+6в101372100 0.2 1011958
14:00+6в91381100 2.2 1011907
17:00+6в91384100 1.3 1010857
20:00+4в81491100 3.8 1011867
7 мая, пт
пт723:00+3в81596100 2.9 1010733
02:00+3в81497100 4.9 1010652
05:00+3в71397100 1.9 1011643
08:00+3в71297100 4.6 1013660
11:00+3в61097100 2.4 1015554
14:00+3в6897100 3.6 1016561
17:00+3в5797100 0.6 1017583
20:00+3в3697100 0.8 1019469
8 мая, сб
сб823:00+3вюв2597100 0.1 1020391
02:00+3всв2393100 0.2 1019164
05:00+4всв3597100 0.0 1019403
08:00+5всв5793100 0.0 1019512
11:00+8в7973100 0.1 10171139
14:00+9всв91273100 0.4 10141203
17:00+7всв101577100 0.3 10121283
20:00+4всв111890100 2.9 10081046
9 мая, вс
вс923:00+2всв112097100 7.8 1004833
02:00+2всв111997100 12.6 1000732
05:00+2всв101797100 4.4 997660
08:00+4всв5991100 4.6 997719
11:00+4всв6997100 0.4 996752
14:00+3св71297100 2.6 995728
17:00+4ссв6997100 1.4 994853
20:00+3с5897100 2.9 995634
10 мая, пн
пн1023:00+3с5797100 0.4 996647
02:00+3ссз4897100 0.6 996553
05:00+3сз6989100 0.1 997467
08:00+5сз687530 0.1 998683
11:00+9зсз686288 0.0 9971303
14:00+7зсз6969100 0.0 997848
17:00+8зсз6969100 0.1 9981134
20:00+5сз587980 0.2 999324